[[{"header":{"parameterUnit":"m.s-1","parameterCategory":2,"la1":30.2992,"la2":30.254,"lo1":-89.0895,"lo2":-89.0443,"dy":0.0025,"dx":0.0025,"nx":19,"ny":19,"refTime":"2026-05-05T09:00:00:Z","depth":"0","parameterNumber":2,"parameterNumberName":"U-component_of_CURRENTS"},"data":[0,0,0,-0.0536,-0.0536,-0.0514,-0.0514,-0.0346,-0.0344,0,0,0,0,0,0,0,0,0,0,0,-0.0529,-0.0529,-0.0536,-0.0536,-0.0514,-0.0514,-0.0346,-0.0344,0,0,0,0,0,0,0,0,0,0,0,-0.0529,-0.0529,-0.0529,-0.0536,-0.0514,-0.0514,-0.0347,-0.0395,0,0,0,0,0,0,0,0,0,0,-0.0432,-0.0449,-0.0529,-0.0529,-0.0536,-0.0514,-0.0514,-0.0399,-0.0392,-0.032,0,-0.0316,0,-0.0333,-0.0331,-0.033,0,0,0,-0.0524,-0.0455,-0.0454,-0.0529,-0.0536,-0.0514,-0.0521,-0.0396,-0.0388,-0.031,-0.0314,-0.0309,-0.0331,-0.033,-0.0329,-0.0185,-0.0184,0,0,-0.0525,-0.0515,-0.046,-0.045,-0.0526,-0.0521,-0.052,-0.0393,-0.0375,-0.0314,-0.0306,-0.0328,-0.0328,-0.0327,-0.0185,-0.0185,0,0,0,-0.0537,-0.0515,-0.0521,-0.0455,-0.0466,-0.0521,-0.052,-0.0381,-0.0385,-0.0305,-0.0326,-0.0327,-0.0325,-0.0185,-0.0185,-0.0197,0,0,0,-0.0537,-0.0524,-0.0521,-0.0514,-0.047,-0.0443,-0.051,-0.0393,-0.038,-0.0327,-0.0327,-0.0323,-0.0185,-0.0185,-0.0197,-0.0162,0,0,0,-0.0531,-0.0523,-0.0522,-0.0513,-0.0513,-0.0446,-0.0443,-0.0392,-0.0392,-0.033,-0.0322,-0.0185,-0.0185,-0.0197,-0.0163,-0.0073,0,0,0,-0.052,-0.0504,-0.0521,-0.0499,-0.0513,-0.048,-0.0444,-0.0398,-0.0346,-0.0326,-0.0185,-0.0185,-0.0197,-0.0164,-0.0075,0.0042,0.0061,0,0,-0.0495,-0.05,-0.0488,-0.0504,-0.0479,-0.0482,-0.0435,-0.0354,-0.0318,-0.0214,-0.0212,-0.0197,-0.0163,-0.0073,0.0053,0.0072,0,0,0,-0.0478,-0.0468,-0.0462,-0.0452,-0.044,-0.0422,-0.0374,-0.0347,-0.0275,-0.0291,-0.0189,-0.0166,-0.0109,-0.0044,-0.0029,-0.0016,-0.0184,-0.0184,-0.0184,-0.0414,-0.0425,-0.04,-0.0409,-0.0389,-0.0362,-0.033,-0.0281,-0.0252,-0.0236,-0.0173,-0.0104,-0.0038,-0.0025,-0.0015,-0.0189,-0.019,-0.019,-0.019,-0.0366,-0.0345,-0.0359,-0.0343,-0.0336,-0.0297,-0.0262,-0.025,-0.0148,-0.0177,-0.0122,-0.0056,-0.0009,-0.0004,-0.019,-0.019,-0.019,-0.019,-0.019,-0.0312,-0.0304,-0.0308,-0.0288,-0.0265,-0.0257,-0.0182,-0.0159,-0.0122,-0.0076,0.0065,0.0067,0.0076,-0.0027,-0.0026,-0.0025,-0.0025,-0.0025,-0.0024,-0.0246,-0.0254,-0.0234,-0.0232,-0.0213,-0.0181,-0.0117,-0.0047,0.0074,0.0107,0.0108,0.0112,-0.0052,-0.0053,-0.0016,-0.0018,-0.0019,-0.0019,-0.002,-0.0165,-0.0181,-0.0147,-0.0132,-0.01,-0.0034,-0.0008,0.0175,0.0267,0.0357,0.0338,0.0216,0.0258,0.0246,0.0254,0.0368,0.0368,0.0368,0.0369,-0.0102,-0.0113,-0.0063,-0.0028,0.002,0.0045,0.0218,0.035,0.0487,0.0551,0.0501,0.0452,0.0436,0.0482,0.0466,0.0476,0.0644,0.0644,0.0644,-0.004,-0.0038,0.0015,0.0029,0.0079,0.0153,0.0309,0.0453,0.0633,0.065,0.0496,0.0484,0.0399,0.0372,0.0429,0.0404,0.0414,0,0]},{"header":{"parameterUnit":"m.s-1","parameterCategory":2,"la1":30.2992,"la2":30.254,"lo1":-89.0895,"lo2":-89.0443,"dy":0.0025,"dx":0.0025,"nx":19,"ny":19,"refTime":"2026-05-05T09:00:00:Z","depth":"0","parameterNumber":3,"parameterNumberName":"V-component_of_CURRENTS"},"data":[0,0,0,0.0082,0.0083,0.017,0.0171,0.0389,0.039,0,0,0,0,0,0,0,0,0,0,0,0.0061,0.0061,0.0082,0.0083,0.017,0.0171,0.0388,0.039,0,0,0,0,0,0,0,0,0,0,0,0.0061,0.0061,0.0061,0.0083,0.017,0.0171,0.0388,0.0303,0,0,0,0,0,0,0,0,0,0,0.0208,0.0164,0.0061,0.0061,0.0083,0.017,0.0171,0.0298,0.0308,0.0369,0,0.0367,0,0.0369,0.0405,0.0405,0,0,0,0.0114,0.0155,0.017,0.0061,0.0084,0.017,0.014,0.0303,0.0315,0.0383,0.037,0.0377,0.0372,0.0406,0.0407,0.0481,0.048,0,0,0.0109,0.0095,0.0161,0.0176,0.0089,0.0137,0.0142,0.0309,0.0322,0.037,0.0382,0.0376,0.0407,0.0409,0.0482,0.0481,0,0,0,0.0074,0.0092,0.0101,0.0168,0.0167,0.0138,0.0145,0.0315,0.0315,0.0384,0.0379,0.0409,0.0411,0.0482,0.0481,0.0409,0,0,0,0.0073,0.0069,0.0098,0.0094,0.0163,0.0227,0.0147,0.0304,0.0322,0.0377,0.0409,0.0413,0.0483,0.0482,0.0413,0.04,0,0,0,0.006,0.0068,0.007,0.0092,0.0114,0.0224,0.0235,0.0308,0.0318,0.0405,0.0414,0.0484,0.0482,0.0416,0.0405,0.0403,0,0,0,0.0056,0.0037,0.0069,0.0056,0.0112,0.0148,0.0234,0.0286,0.0352,0.041,0.0483,0.0481,0.0417,0.0408,0.0405,0.0412,0.0401,0,0,0.0022,0.0033,0.0024,0.0054,0.0062,0.0139,0.0166,0.0286,0.0344,0.0444,0.0445,0.0411,0.0405,0.0403,0.0306,0.0298,0,0,0,0.0007,0.0002,0.0011,0.0027,0.0067,0.0118,0.0216,0.0245,0.0312,0.0367,0.0394,0.0393,0.0394,0.0403,0.0395,0.0565,0.0473,0.0473,0.0473,-0.0034,-0.002,-0.0025,0.0003,0.0034,0.0113,0.0148,0.0207,0.0277,0.0264,0.032,0.0252,0.0256,0.0252,0.0424,0.0295,0.0295,0.0294,0.0294,-0.007,-0.0072,-0.0045,-0.0047,0.0005,0.0043,0.011,0.0143,0.0187,0.0225,0.023,0.0308,0.0241,0.0427,0.0289,0.029,0.0291,0.0291,0.0291,-0.0088,-0.009,-0.0091,-0.0079,-0.0054,0.0009,0.0047,0.0097,0.0132,0.0134,0.019,0.0192,0.0373,0.0151,0.0151,0.015,0.015,0.015,0.015,-0.0101,-0.0107,-0.0113,-0.0105,-0.0095,-0.0053,0.0022,0.0051,0.0098,0.0124,0.0125,0.0363,0.0209,0.0235,0.0149,0.0149,0.0149,0.0149,0.0149,-0.0121,-0.0124,-0.0131,-0.0131,-0.01,-0.0067,-0.0012,0.0052,0.0079,0.0086,0.0318,0.0125,0.0163,0.0169,0.0194,0.0102,0.0102,0.0102,0.0102,-0.0128,-0.0133,-0.0135,-0.013,-0.01,-0.0064,0.0022,0.0123,0.0269,0.0375,0.0394,0.0439,0.0434,0.0492,0.0491,0.0524,0.0518,0.0519,0.052,-0.0131,-0.0131,-0.0131,-0.0125,-0.0095,-0.0048,0.0057,0.0287,0.051,0.0556,0.0629,0.0612,0.0698,0.0675,0.0783,0.0768,0.0828,0,0]}],[{"header":{"parameterUnit":"m.s-1","parameterCategory":2,"la1":30.2992,"la2":30.254,"lo1":-89.0895,"lo2":-89.0443,"dy":0.0025,"dx":0.0025,"nx":19,"ny":19,"refTime":"2026-05-05T09:00:00:Z","depth":"2","parameterNumber":2,"parameterNumberName":"U-component_of_CURRENTS"},"data":[0,0,0,-0.0923,-0.0924,-0.0918,-0.0918,-0.1122,-0.1125,0,0,0,0,0,0,0,0,0,0,0,-0.089,-0.089,-0.0923,-0.0924,-0.0918,-0.0918,-0.1121,-0.1125,0,0,0,0,0,0,0,0,0,0,0,-0.0891,-0.089,-0.0889,-0.0924,-0.0918,-0.0918,-0.1121,-0.107,0,0,0,0,0,0,0,0,0,0,-0.1049,-0.0996,-0.089,-0.0889,-0.0924,-0.0918,-0.0918,-0.1065,-0.1074,-0.1188,0,-0.116,0,-0.1174,-0.1144,-0.1145,0,0,0,-0.0914,-0.0989,-0.0991,-0.0889,-0.0924,-0.0918,-0.0918,-0.1068,-0.1078,-0.12,-0.1163,-0.117,-0.1177,-0.1146,-0.1147,-0.1439,-0.144,0,0,-0.0914,-0.0901,-0.0983,-0.0996,-0.0894,-0.0918,-0.0918,-0.1071,-0.1074,-0.1163,-0.1175,-0.1181,-0.1148,-0.115,-0.1438,-0.1439,0,0,0,-0.0922,-0.0901,-0.0894,-0.0988,-0.0985,-0.0918,-0.0918,-0.1065,-0.1062,-0.1177,-0.1183,-0.1149,-0.1153,-0.1437,-0.1438,-0.1343,0,0,0,-0.0921,-0.0907,-0.0893,-0.0888,-0.0979,-0.1,-0.0908,-0.105,-0.1069,-0.1182,-0.115,-0.1156,-0.1435,-0.1437,-0.1343,-0.1252,0,0,0,-0.0896,-0.0906,-0.0894,-0.0886,-0.0892,-0.0997,-0.1001,-0.1052,-0.1076,-0.1145,-0.1157,-0.1435,-0.1437,-0.1343,-0.1255,-0.1223,0,0,0,-0.0899,-0.0869,-0.0892,-0.0873,-0.0892,-0.0975,-0.0999,-0.1049,-0.1101,-0.1151,-0.1436,-0.1438,-0.1343,-0.1257,-0.1225,-0.1048,-0.1024,0,0,-0.0867,-0.0864,-0.0857,-0.0879,-0.0911,-0.0977,-0.1081,-0.113,-0.1189,-0.1396,-0.1401,-0.1343,-0.1256,-0.1223,-0.1188,-0.1159,0,0,0,-0.0853,-0.0842,-0.0855,-0.0876,-0.0951,-0.1017,-0.1127,-0.1195,-0.1283,-0.1235,-0.142,-0.1368,-0.1349,-0.1251,-0.123,-0.1449,-0.1449,-0.1449,-0.1449,-0.078,-0.0819,-0.0819,-0.0877,-0.094,-0.1091,-0.1146,-0.1275,-0.1354,-0.1374,-0.1349,-0.1334,-0.1233,-0.1214,-0.1445,-0.1445,-0.1444,-0.1444,-0.1444,-0.0742,-0.0732,-0.0791,-0.0796,-0.0892,-0.0997,-0.1182,-0.1226,-0.1323,-0.1373,-0.1361,-0.1228,-0.1183,-0.1438,-0.1439,-0.144,-0.1441,-0.1441,-0.1441,-0.0689,-0.0688,-0.0692,-0.0724,-0.0764,-0.0891,-0.0957,-0.1085,-0.1182,-0.1178,-0.1082,-0.1081,-0.1207,-0.1166,-0.1165,-0.1165,-0.1164,-0.1164,-0.1163,-0.0623,-0.0639,-0.0618,-0.0643,-0.0635,-0.0677,-0.0813,-0.0864,-0.0896,-0.0944,-0.0944,-0.1239,-0.1248,-0.1195,-0.1156,-0.1157,-0.1158,-0.1159,-0.1159,-0.0563,-0.0561,-0.0551,-0.0533,-0.055,-0.0565,-0.0657,-0.0644,-0.0682,-0.0641,-0.0841,-0.0852,-0.0854,-0.0872,-0.0813,-0.0676,-0.0676,-0.0676,-0.0676,-0.0505,-0.0511,-0.0484,-0.0469,-0.05,-0.0522,-0.0483,-0.0478,-0.0508,-0.0559,-0.0565,-0.0606,-0.0625,-0.0621,-0.0645,-0.0585,-0.0389,-0.0389,-0.0389,-0.0468,-0.047,-0.0432,-0.0432,-0.0463,-0.0489,-0.0403,-0.0318,-0.0378,-0.0391,-0.0651,-0.063,-0.0708,-0.0732,-0.0746,-0.0776,-0.0688,0,0]},{"header":{"parameterUnit":"m.s-1","parameterCategory":2,"la1":30.2992,"la2":30.254,"lo1":-89.0895,"lo2":-89.0443,"dy":0.0025,"dx":0.0025,"nx":19,"ny":19,"refTime":"2026-05-05T09:00:00:Z","depth":"2","parameterNumber":3,"parameterNumberName":"V-component_of_CURRENTS"},"data":[0,0,0,-0.0281,-0.028,-0.0224,-0.0223,-0.0062,-0.0061,0,0,0,0,0,0,0,0,0,0,0,-0.0283,-0.0283,-0.0281,-0.028,-0.0224,-0.0223,-0.0062,-0.006,0,0,0,0,0,0,0,0,0,0,0,-0.0284,-0.0283,-0.0283,-0.028,-0.0224,-0.0223,-0.0063,-0.0123,0,0,0,0,0,0,0,0,0,0,-0.0187,-0.0221,-0.0283,-0.0283,-0.028,-0.0224,-0.0223,-0.0126,-0.0119,-0.0068,0,-0.006,0,-0.007,-0.0049,-0.0049,0,0,0,-0.0261,-0.0228,-0.0206,-0.0283,-0.028,-0.0224,-0.0244,-0.0123,-0.0114,-0.0058,-0.0058,-0.0053,-0.0067,-0.0048,-0.0048,0.0067,0.0067,0,0,-0.0264,-0.0275,-0.0212,-0.0201,-0.0264,-0.0246,-0.0242,-0.0118,-0.011,-0.0058,-0.005,-0.0064,-0.0047,-0.0046,0.0067,0.0067,0,0,0,-0.0286,-0.0278,-0.026,-0.0206,-0.021,-0.0245,-0.0241,-0.0116,-0.0108,-0.0049,-0.0062,-0.0046,-0.0044,0.0067,0.0067,-0.0085,0,0,0,-0.0287,-0.0292,-0.0262,-0.0268,-0.0214,-0.0179,-0.0241,-0.0116,-0.0104,-0.0063,-0.0046,-0.0043,0.0067,0.0067,-0.0081,-0.0117,0,0,0,-0.0286,-0.0293,-0.0284,-0.0269,-0.0255,-0.0182,-0.0167,-0.0114,-0.0112,-0.0049,-0.0042,0.0067,0.0067,-0.0077,-0.011,-0.0119,0,0,0,-0.0301,-0.0314,-0.0284,-0.0303,-0.0256,-0.0266,-0.0168,-0.0158,-0.0117,-0.0045,0.0067,0.0067,-0.0076,-0.0107,-0.0116,0.0034,0.0031,0,0,-0.0334,-0.0318,-0.0331,-0.0305,-0.0339,-0.0273,-0.0291,-0.019,-0.0089,0.0036,0.0038,-0.0082,-0.011,-0.0118,0.0035,0.0033,0,0,0,-0.0354,-0.0359,-0.0364,-0.0372,-0.0365,-0.0349,-0.0274,-0.0219,-0.0117,-0.0066,-0.0038,-0.0049,-0.0051,0.0047,0.0045,0.0067,0.0067,0.0067,0.0067,-0.0402,-0.0404,-0.0431,-0.0425,-0.0429,-0.0401,-0.0373,-0.0269,-0.0185,-0.0153,-0.0143,-0.0207,-0.0104,-0.0103,-0.0121,-0.0122,-0.0123,-0.0123,-0.0123,-0.0457,-0.0471,-0.0469,-0.0489,-0.0476,-0.0477,-0.0415,-0.037,-0.0294,-0.0215,-0.0211,-0.0079,-0.0114,-0.0135,-0.0132,-0.0131,-0.013,-0.0129,-0.0128,-0.0487,-0.0495,-0.0497,-0.0524,-0.0531,-0.0507,-0.0499,-0.0464,-0.0385,-0.0407,-0.0229,-0.0223,-0.0291,-0.0397,-0.0398,-0.0398,-0.0398,-0.0398,-0.0398,-0.0514,-0.0524,-0.0537,-0.0552,-0.0555,-0.0557,-0.054,-0.0503,-0.0413,-0.0338,-0.0335,-0.0297,-0.0288,-0.0302,-0.0402,-0.0401,-0.0401,-0.04,-0.04,-0.0557,-0.0549,-0.0583,-0.0587,-0.0599,-0.0573,-0.0552,-0.0415,-0.0387,-0.0304,-0.0274,-0.0276,-0.0193,-0.0187,-0.0194,-0.0261,-0.0261,-0.0261,-0.0261,-0.0574,-0.0576,-0.0606,-0.0628,-0.0648,-0.0591,-0.0416,-0.018,-0.008,0.0027,0.0014,0.0097,0.0085,0.0189,0.0186,0.0189,0.0222,0.0223,0.0223,-0.0595,-0.0606,-0.0621,-0.0643,-0.0666,-0.0587,-0.0301,0.0075,0.0292,0.0242,0.0098,-0.0229,-0.0138,-0.0145,-0.0005,-0.0002,-0.0005,0,0]}],[{"header":{"parameterUnit":"m.s-1","parameterCategory":2,"la1":30.2992,"la2":30.254,"lo1":-89.0895,"lo2":-89.0443,"dy":0.0025,"dx":0.0025,"nx":19,"ny":19,"refTime":"2026-05-05T09:00:00:Z","depth":"4","parameterNumber":2,"parameterNumberName":"U-component_of_CURRENTS"},"data":[0,0,0,-0.1047,-0.105,-0.1189,-0.119,-0.1288,-0.1289,0,0,0,0,0,0,0,0,0,0,0,-0.0981,-0.0982,-0.1047,-0.1051,-0.1189,-0.119,-0.1288,-0.1289,0,0,0,0,0,0,0,0,0,0,0,-0.0981,-0.0982,-0.0983,-0.1051,-0.1189,-0.119,-0.1287,-0.12,0,0,0,0,0,0,0,0,0,0,-0.1074,-0.104,-0.0981,-0.0983,-0.1052,-0.1189,-0.119,-0.1197,-0.1206,-0.1205,0,-0.1225,0,-0.1271,-0.1294,-0.1294,0,0,0,-0.1041,-0.1033,-0.1064,-0.0983,-0.1054,-0.1189,-0.1124,-0.1202,-0.1212,-0.1216,-0.1227,-0.1232,-0.1272,-0.1295,-0.1295,-0.1399,-0.1399,0,0,-0.1033,-0.1014,-0.1057,-0.107,-0.1087,-0.112,-0.1129,-0.1209,-0.122,-0.1228,-0.1235,-0.1274,-0.1295,-0.1296,-0.1398,-0.1399,0,0,0,-0.1018,-0.1008,-0.1038,-0.1064,-0.1103,-0.1124,-0.1134,-0.1217,-0.1225,-0.1237,-0.1275,-0.1296,-0.1297,-0.1398,-0.1399,-0.1416,0,0,0,-0.1013,-0.1,-0.1034,-0.1025,-0.1102,-0.1177,-0.114,-0.1218,-0.123,-0.1274,-0.1296,-0.1298,-0.1397,-0.1398,-0.1414,-0.1396,0,0,0,-0.0975,-0.0997,-0.101,-0.1024,-0.109,-0.1177,-0.1191,-0.1222,-0.1254,-0.1295,-0.1298,-0.1397,-0.1398,-0.1413,-0.1395,-0.1392,0,0,0,-0.0953,-0.0972,-0.1009,-0.104,-0.1089,-0.1172,-0.1191,-0.1263,-0.13,-0.1296,-0.1397,-0.1399,-0.1412,-0.1394,-0.1391,-0.1158,0,0,0,-0.096,-0.0973,-0.0988,-0.1025,-0.1116,-0.1152,-0.1241,-0.13,-0.1316,-0.1362,-0.1365,-0.1415,-0.1395,-0.1392,-0.1232,0,0,0,0,-0.0978,-0.0994,-0.1024,-0.1089,-0.1156,-0.1224,-0.1296,-0.1331,-0.1393,-0.1348,-0.1435,-0.1421,-0.1419,-0.1282,-0.1404,-0.1404,-0.1404,-0.1404,-0.1404,-0.0953,-0.1002,-0.1038,-0.1105,-0.1167,-0.1293,-0.1339,-0.1398,-0.142,-0.1454,-0.1452,-0.1479,-0.1339,-0.1483,-0.1483,-0.1483,-0.1484,-0.1484,-0.1484,-0.0953,-0.0961,-0.1032,-0.1105,-0.1196,-0.1283,-0.1377,-0.1425,-0.1483,-0.1492,-0.149,-0.133,-0.1486,-0.1485,-0.1485,-0.1485,-0.1485,-0.1485,-0.1484,-0.0884,-0.0905,-0.0976,-0.1091,-0.1189,-0.1295,-0.1301,-0.1412,-0.1476,-0.149,-0.1335,-0.1482,-0.1461,-0.1493,-0.1493,-0.1493,-0.1492,-0.1492,-0.1492,-0.0824,-0.0885,-0.0928,-0.1081,-0.1109,-0.1191,-0.1288,-0.1282,-0.1383,-0.1312,-0.1487,-0.1482,-0.1481,-0.1461,-0.1491,-0.1492,-0.1492,-0.1492,-0.1492,-0.0785,-0.0833,-0.0855,-0.0892,-0.0994,-0.1024,-0.1132,-0.1114,-0.1118,-0.1102,-0.1216,-0.123,-0.1192,-0.1199,-0.1167,-0.1111,-0.1108,-0.1105,0,-0.0747,-0.0775,-0.0761,-0.0739,-0.076,-0.0895,-0.0797,-0.0862,-0.097,-0.094,-0.1152,-0.1283,-0.1291,-0.1252,-0.1253,-0.1216,0,0,0,-0.0743,-0.0721,-0.0648,-0.0644,-0.0637,-0.0696,-0.0784,-0.075,-0.0961,-0.0885,-0.1031,-0.105,-0.1286,-0.1488,-0.1463,-0.1463,-0.1428,0,0]},{"header":{"parameterUnit":"m.s-1","parameterCategory":2,"la1":30.2992,"la2":30.254,"lo1":-89.0895,"lo2":-89.0443,"dy":0.0025,"dx":0.0025,"nx":19,"ny":19,"refTime":"2026-05-05T09:00:00:Z","depth":"4","parameterNumber":3,"parameterNumberName":"V-component_of_CURRENTS"},"data":[0,0,0,-0.0124,-0.0124,-0.0105,-0.0105,0.0036,0.0037,0,0,0,0,0,0,0,0,0,0,0,-0.0122,-0.0122,-0.0124,-0.0124,-0.0105,-0.0105,0.0035,0.0037,0,0,0,0,0,0,0,0,0,0,0,-0.0122,-0.0122,-0.0122,-0.0124,-0.0105,-0.0105,0.0035,-0.0005,0,0,0,0,0,0,0,0,0,0,-0.0036,-0.0061,-0.0122,-0.0122,-0.0124,-0.0105,-0.0105,-0.0008,-0.0002,0.0057,0,0.0054,0,0.0043,0.0048,0.0049,0,0,0,-0.0111,-0.0066,-0.0059,-0.0122,-0.0124,-0.0105,-0.011,-0.0006,0.0001,0.0065,0.0056,0.006,0.0046,0.0049,0.005,0.0204,0.0204,0,0,-0.0112,-0.0115,-0.0064,-0.0056,-0.0122,-0.0111,-0.011,-0.0003,0.0005,0.0056,0.0063,0.0048,0.005,0.0051,0.0203,0.0204,0,0,0,-0.0124,-0.0116,-0.0114,-0.006,-0.0069,-0.011,-0.0109,-0.0,0.0001,0.0064,0.005,0.0051,0.0053,0.0203,0.0203,0.0117,0,0,0,-0.0124,-0.0124,-0.0114,-0.0115,-0.0073,-0.0052,-0.0109,-0.0007,0.0004,0.0049,0.0051,0.0055,0.0202,0.0203,0.0119,0.0053,0,0,0,-0.0123,-0.0124,-0.0123,-0.0116,-0.0114,-0.0055,-0.0048,-0.0005,-0.0004,0.0049,0.0055,0.0202,0.0203,0.012,0.0057,0.0127,0,0,0,-0.0123,-0.0138,-0.0123,-0.0144,-0.0115,-0.0111,-0.005,-0.0029,0.0009,0.0052,0.0202,0.0203,0.012,0.0059,0.0128,0.0088,0,0,0,-0.0147,-0.014,-0.0156,-0.0143,-0.0178,-0.0113,-0.0105,-0.0026,0.0055,0.0177,0.0179,0.0118,0.0057,0.0127,0.0155,0,0,0,0,-0.0167,-0.018,-0.0185,-0.0203,-0.0188,-0.0169,-0.009,-0.0025,0.0081,0.008,0.0165,0.013,0.0177,0.0158,0.0209,0.0208,0.0208,0.0208,0.0208,-0.0185,-0.0205,-0.0239,-0.0254,-0.025,-0.019,-0.0139,-0.0023,0.0056,0.0105,0.0095,0.0131,0.011,0.0153,0.0153,0.0152,0.0152,0.0152,0.0152,-0.0231,-0.0261,-0.0284,-0.033,-0.0314,-0.0294,-0.017,-0.0099,0.0041,0.0076,0.0128,0.011,0.0144,0.0146,0.0147,0.0148,0.0148,0.0149,0.0149,-0.0234,-0.0262,-0.0297,-0.0377,-0.0397,-0.0357,-0.0312,-0.021,-0.0041,-0.0008,0.0069,0.0107,0.0079,0.0054,0.0054,0.0054,0.0054,0.0054,0.0054,-0.0239,-0.0281,-0.0343,-0.0422,-0.0455,-0.0466,-0.0391,-0.0296,-0.0144,-0.0033,-0.0012,0.01,0.0103,0.0077,0.0054,0.0054,0.0054,0.0054,0.0054,-0.0281,-0.0299,-0.0379,-0.0428,-0.0502,-0.0501,-0.0469,-0.0308,-0.0182,-0.0043,0.0005,0.0007,0.005,0.0055,0.0028,-0.001,-0.0011,-0.0012,0,-0.03,-0.0319,-0.0403,-0.0456,-0.0493,-0.0502,-0.04,-0.0302,-0.0121,-0.0113,-0.0102,-0.0053,-0.005,-0.0007,-0.0003,-0.0037,0,0,0,-0.0341,-0.035,-0.039,-0.0438,-0.0475,-0.0392,-0.0364,-0.0307,-0.0176,-0.0097,-0.0026,-0.0022,-0.0038,0.0055,0.0128,0.0132,0.0095,0,0]}]]